Location: Adannes
(46.5312°N, 7.2457°E)
Time: 11:37:13
(UTC+00:00)

Daily predictions for brighter satellites

Satellite Brightness Start Highest point End
(mag) Time Altitude Azimuth Time Altitude Azimuth Time Altitude Azimuth
SPOT 3 Rocket 4.1 19:34:48 10° SE 19:39:44 44° ENE 19:44:41 10° N
Cosmos 1825 3.1 19:36:33 10° SSW 19:40:13 51° WNW 19:43:54 10° N
IGS 5A 3.8 19:37:09 10° SSE 19:41:10 50° ENE 19:45:12 10° N
BREEZE-M DEB (TANK) 3.9 19:28:57 10° W 19:43:02 74° NNW 19:46:49 10° ENE
Cosmos 1980 Rocket 2.2 19:38:44 10° NNW 19:44:25 84° ENE 19:50:04 10° SSE
Cosmos 2369 3.9 19:39:05 10° NNW 19:44:44 73° WSW 19:50:21 10° SSE
Cosmos 2058 3.2 19:40:50 10° SSW 19:45:01 75° W 19:49:14 10° N
Cosmos 2221 2.7 19:45:22 10° NNW 19:49:41 78° W 19:54:00 10° S
RESURS DK-1 2.3 19:46:21 10° SSW 19:50:30 84° ESE 19:54:40 10° NNE
ERBS 3.9 19:47:48 10° WNW 19:50:31 25° SW 19:53:14 10° S
COSMOS 2406 4.1 19:48:18 10° SW 19:53:52 57° WNW 19:59:31 10° NNE
BREEZE-M DEB (TANK) 3.4 19:50:53 10° SSW 19:54:09 49° SE 20:04:10 10° ENE
Cosmos 2322 Rocket 3.5 19:50:04 10° N 19:54:54 28° NE 19:59:39 10° ESE
IRS-1A Rocket 4.5 19:50:19 10° S 19:55:50 74° WSW 20:01:21 10° NNW
Cosmos 304 Rocket 4.4 19:55:06 10° N 19:59:41 43° ENE 20:03:55 12° SE
BREEZE-M DEB (TANK) 3.4 19:57:03 10° WNW 20:00:05 86° SSW 20:08:55 10° ESE
Cosmos 1933 4.1 19:57:23 10° N 20:01:09 36° ENE 20:04:32 12° SE
Cosmos 1538 Rocket 4.0 19:56:12 10° S 20:01:19 60° ESE 20:06:25 10° NNE
Resurs 01 Rocket 1.6 19:59:22 10° SSE 20:03:48 86° ENE 20:08:16 10° NNW
ERS-2 2.1 20:02:07 10° NNE 20:05:46 86° WNW 20:09:24 10° SSW
Cosmos 2151 3.3 20:01:45 10° SSE 20:05:48 47° E 20:09:55 10° NNE
Cosmos 2098 Rocket 2.3 20:04:01 10° S 20:07:04 79° E 20:10:43 10° N
Gbstr 26 Del rocket 3.0 20:05:30 10° WNW 20:09:11 60° NNE 20:12:56 11° ESE
Meteor 2-3 Rocket 4.1 20:05:37 10° SSE 20:10:58 46° E 20:16:24 10° NNE
CARTOSAT-1 4.3 20:09:29 13° SE 20:12:54 37° ENE 20:16:53 10° N
Cosmos 2219 Rocket 4.4 20:13:07 10° N 20:15:46 13° NE 20:18:25 10° ENE
Ariane Rocket 3.9 20:13:22 10° S 20:18:16 49° W 20:23:12 10° NNW
SL-16 R/B 2.6 20:18:10 10° NNW 20:23:44 53° ENE 20:28:03 17° SE
Cosmos 1782 3.4 20:23:48 10° N 20:27:38 41° ENE 20:30:03 20° SE
Cosmos 371 Rocket 3.7 20:23:38 10° NNW 20:28:23 61° WSW 20:32:51 11° S
ARIANE 5 R/B 3.1 20:26:51 17° SE 20:29:59 47° ENE 20:34:15 10° N
Cosmos 1271 Rocket 2.8 20:30:15 10° N 20:34:14 68° ENE 20:36:55 20° SSE
SPOT 1/Viking Rocket 3.6 20:31:18 12° SSE 20:36:07 82° WSW 20:41:23 10° NNW
USA 276 2.0 20:33:40 10° WNW 20:36:51 86° NNE 20:38:32 25° ESE
BREEZE-M DEB (TANK) 2.7 20:34:51 10° WNW 20:37:54 65° SSW 20:43:14 17° SE
Cosmos 2195 Rocket 4.4 20:32:00 10° S 20:38:05 74° E 20:44:12 10° NNE
Cosmos 1766 Rocket 4.1 20:37:42 20° SSE 20:40:14 39° E 20:44:20 10° NNE
Cosmos 1151 Rocket 3.4 20:37:02 10° N 20:41:15 47° ENE 20:43:40 23° SE
ATLAS 5 CENTAUR R/B 4.3 20:38:37 10° NNW 20:42:10 18° NNE 20:46:05 10° ENE
ATLAS 2AS CENTAUR R/B 4.1 20:37:38 10° WSW 20:45:13 48° NW 20:52:36 10° NE
Cosmos 1328 Rocket 4.2 20:41:15 10° N 20:45:29 41° ENE 20:47:40 24° SE
Cosmos 923 Rocket 4.0 20:42:23 10° S 20:47:40 67° ESE 20:53:00 10° NNE
Terra 2.3 20:47:56 23° SE 20:50:34 45° ENE 20:55:07 10° N
ATLAS 3B R/B 3.4 20:44:02 10° NW 20:50:52 50° WSW 20:56:42 16° S
SPOT 5 2.7 20:50:48 25° SSE 20:53:13 64° ENE 20:57:34 10° N
USA 267 4.0 20:49:03 10° ENE 20:54:33 28° SE 20:59:02 14° S
Cosmos 1092 Rocket 4.1 20:49:56 10° SSW 20:56:11 79° W 21:02:33 10° N
Cosmos 2082 Rocket 3.9 20:51:14 10° WSW 20:56:23 36° NW 21:01:35 10° NNE
Cosmos 2056 Rocket 4.0 20:54:05 10° NNW 20:59:20 51° ENE 21:02:09 25° SE
NOSS 2-1 (C) 3.9 21:00:51 28° E 21:00:51 28° E 21:03:04 10° ENE
BREEZE-M DEB (TANK) 2.6 21:00:20 10° W 21:02:32 44° N 21:03:12 28° NE
ERS-1 Rocket 2.9 21:00:35 25° SSE 21:03:37 83° ENE 21:08:40 10° NNW
SL-27 R/B 3.4 21:06:23 30° E 21:06:23 30° E 21:09:27 10° NE
Cosmos 2360 Rocket 2.6 21:01:35 10° NNW 21:07:06 53° ENE 21:10:08 26° ESE
NOSS 2-1 (D) 3.5 21:08:18 35° E 21:08:18 35° E 21:10:52 10° NE
Cosmos 2026 Rocket 4.1 21:02:48 10° SSW 21:09:10 78° W 21:15:28 10° N
GP-B 3.5 21:08:37 10° N 21:13:01 61° W 21:16:14 18° SSW
ISS -2.3 21:12:51 10° W 21:15:41 25° SW 21:15:56 25° SSW
Cosmos 2333 Rocket 3.3 21:12:25 10° NNW 21:17:34 34° NE 21:20:38 20° ESE
Spot 2 Rocket 4.1 21:14:48 19° S 21:18:17 53° W 21:23:19 10° NNW
Meteor 1-10 Rocket 4.4 21:14:54 10° N 21:20:24 58° ENE 21:22:51 32° SE
Cosmos 1371 Rocket 4.0 21:15:28 10° NNW 21:20:53 83° ENE 21:23:22 33° SSE
Cosmos 1812 2.6 21:18:03 10° N 21:21:57 86° E 21:23:04 45° SSE
Cosmos 2112 Rocket 3.9 21:17:49 15° SSW 21:22:18 85° ESE 21:27:37 10° NNE
Cosmos 1680 Rocket 3.5 21:17:31 10° SSW 21:22:49 83° WNW 21:28:06 10° NNE
Cosmos 1500 Rocket 4.5 21:22:34 30° ESE 21:23:09 31° E 21:27:04 10° NNE
Cosmos 220 Rocket 4.0 21:19:56 10° NNW 21:24:17 80° WSW 21:25:50 39° SSE
Okean 3 Rocket 3.8 21:24:58 23° SSW 21:27:44 70° W 21:32:16 10° N
USA 234 4.1 21:23:12 10° E 21:29:26 48° NNE 21:35:40 10° NW
Cosmos 292 Rocket 4.0 21:27:23 10° NNW 21:32:06 56° ENE 21:33:40 38° ESE
Cosmos 2237 Rocket 4.4 21:34:09 10° N 21:37:43 17° NE 21:41:16 10° E
Meteor 2-16 Rocket 4.4 21:35:25 32° SSE 21:38:14 66° E 21:44:16 10° NNE
Cosmos 2322 Rocket 2.5 21:33:46 10° NW 21:39:18 57° WSW 21:41:46 31° S
Resurs 01 Rocket 4.5 21:40:01 10° W 21:40:55 11° W 21:41:48 10° WNW
Cosmos 1408 Rocket 3.4 21:40:12 44° S 21:41:34 87° ESE 21:45:57 10° N
Cosmos 1743 Rocket 3.9 21:42:22 45° ESE 21:42:59 48° E 21:47:16 10° NNE
Cosmos 2315 Rocket 4.3 21:43:39 10° N 21:49:52 55° ENE 21:52:17 36° SE
Sich 1 4.3 21:51:50 27° E 21:51:50 27° E 21:55:23 10° NNE
Cosmos 2084 3.5 21:48:52 19° SW 21:51:45 73° NW 21:55:56 10° NE
Cosmos 1553 Rocket 4.4 21:46:20 10° NNW 21:52:16 57° W 21:55:36 26° SSW
Gbstr 26 Del rocket 3.9 21:52:22 10° WNW 21:55:26 31° SW 21:55:26 31° SW
Cosmos 2266 Rocket 3.9 21:53:29 36° S 21:56:08 78° E 22:02:23 10° N
Cosmos 1862 4.1 21:57:03 33° SW 21:58:27 48° WNW 22:02:19 10° N
Cosmos 2219 Rocket 2.5 21:55:31 10° NNW 22:01:02 56° ENE 22:02:58 37° ESE
Cosmos 1624 Rocket 4.5 21:56:15 10° NNW 22:01:16 50° WSW 22:02:57 36° SSW
Cosmos 2228 Rocket 3.1 22:01:11 10° N 22:05:34 63° E 22:06:05 58° ESE
Cosmos 1515 Rocket 4.1 22:01:20 10° NNW 22:05:40 53° W 22:06:43 42° SW
NOSS 2-1 (E) 3.4 22:05:22 48° W 22:05:53 55° NW 22:09:18 10° NNE
H-2A R/B 3.8 22:01:54 10° N 22:06:04 64° WNW 22:07:14 43° SW
SL-16 R/B 3.7 22:02:51 10° NW 22:07:29 27° WSW 22:09:55 20° SW
NOSS 3-1 (C) 4.0 22:02:47 10° NW 22:10:16 87° NE 22:14:30 34° SE
Cosmos 2333 4.1 22:05:01 10° NNW 22:10:39 90° SSE 22:12:13 50° SSE
COSMOS 2455 2.9 22:09:10 45° SSE 22:10:45 59° ESE 22:16:40 10° NE
Cosmos 1420 Rocket 4.2 22:07:04 10° NNW 22:12:20 61° WSW 22:13:43 45° SSW
Cosmos 883 Rocket 4.4 22:08:28 10° N 22:14:42 86° W 22:16:57 43° S
COSMOS 2428 3.0 22:10:08 10° NNW 22:15:48 60° ENE 22:17:35 41° ESE
Cosmos 1655 Rocket 4.2 22:12:45 30° SSW 22:16:03 69° W 22:22:29 10° N
Cosmos 1515 4.5 22:17:31 10° N 22:20:48 41° ENE 22:20:48 41° ENE
Spot 4 3.8 22:21:45 59° SE 22:22:31 72° ENE 22:27:21 10° N
USA 229 DEB 4.0 22:17:10 10° NW 22:24:28 72° NE 22:28:16 33° SE
USA 229 4.0 22:17:16 10° NW 22:24:34 72° NE 22:28:23 33° SE
ATLAS 5 CENTAUR R/B 2.8 22:22:30 10° NNW 22:27:50 55° NE 22:30:39 31° ESE
Terra 3.6 22:26:49 19° WSW 22:28:31 23° W 22:32:17 10° NW
COSMOS 2487 3.3 22:31:49 45° NNE 22:31:49 45° NNE 22:34:16 10° NNE
Cosmos 1452 Rocket 3.4 22:26:38 10° NNW 22:31:54 80° WSW 22:32:49 61° S
Cosmos 1707 Rocket 3.8 22:27:55 10° N 22:32:12 53° ENE 22:32:18 53° E
ALOS 2 2.9 22:33:57 52° E 22:34:14 53° ENE 22:38:31 10° N
USA 267 3.2 22:31:31 10° NE 22:38:06 89° SE 22:44:40 10° SW
Meteor 1-27 Rocket 4.3 22:37:14 10° NNW 22:42:40 50° W 22:44:14 39° SW
NOSS 3-1 (A) 4.0 22:37:27 10° NW 22:44:58 88° NE 22:48:49 38° SE
Cosmos 1805 Rocket 3.8 22:49:13 56° WSW 22:49:38 59° WNW 22:54:02 10° N
Cosmos 2360 Rocket 3.5 22:46:10 10° NW 22:50:46 26° WSW 22:51:53 25° WSW
Nadezhda 2 Rocket 4.4 22:49:09 52° S 22:50:53 83° E 22:57:19 10° N
Meteor 1-20 Rocket 4.2 22:54:51 54° SSW 22:56:08 78° W 23:01:51 10° N
Cosmos 1110 Rocket 3.9 22:52:37 10° NNW 22:57:59 90° WSW 22:58:40 69° SSE
Cosmos 1980 4.2 22:54:06 10° NNW 22:59:39 53° ENE 23:01:19 40° ESE
Cosmos 2333 Rocket 2.7 22:56:37 10° NW 23:01:57 44° WSW 23:02:38 42° SW
Cosmos 1331 Rocket 3.8 22:58:08 10° NNW 23:03:24 89° WSW 23:03:58 72° SSE
Cosmos 1244 Rocket 4.4 23:03:47 53° SSW 23:05:21 84° W 23:11:36 10° N
Cosmos 2322 4.4 23:06:51 10° NW 23:12:07 39° WSW 23:12:44 37° WSW
USA 234 3.1 23:10:02 46° SE 23:12:13 78° SW 23:18:48 10° NW
Cosmos 1340 Rocket 4.4 23:13:35 26° ENE 23:13:35 26° ENE 23:16:06 10° NNE
Nimbus 7 Rocket 4.4 23:06:57 10° NNE 23:12:58 68° ESE 23:14:02 57° SSE
NOSS 0 Rocket 3.8 23:08:21 10° NNW 23:14:38 87° WSW 23:16:01 57° SSE
Cosmos 2297 Rocket 2.6 23:17:11 44° ESE 23:17:21 44° ESE 23:22:43 10° NE
Okean 1-7 4.2 23:14:58 10° N 23:18:48 32° ENE 23:18:54 31° ENE
Lacrosse 5 2.8 23:21:59 35° E 23:21:59 35° E 23:25:29 10° ENE
Cosmos 2237 Rocket 2.3 23:17:07 10° NNW 23:22:49 73° ENE 23:24:02 55° SE
Cosmos 2084 Rocket 3.6 23:20:03 10° NW 23:24:07 67° NE 23:24:07 67° NE
Meteor 1-18 Rocket 4.3 23:20:11 10° NNW 23:26:01 69° W 23:26:57 58° SSW
Cosmos 1500 3.9 23:26:57 52° NNW 23:26:57 52° NNW 23:30:09 10° N
Cosmos 1470 Rocket 3.6 23:29:03 70° NE 23:29:03 70° NE 23:33:00 10° NNE
Cosmos 2227 Rocket 2.7 23:28:53 41° ESE 23:29:03 41° ESE 23:34:21 10° NE
Sich 1 4.4 23:28:46 29° W 23:29:18 30° WNW 23:33:09 10° N
Okean 1 4.5 23:28:38 10° NNW 23:31:46 36° WNW 23:31:46 36° WNW
Cosmos 1633 Rocket 3.4 23:33:07 55° WNW 23:33:07 55° WNW 23:37:20 10° N
Cosmos 1933 Rocket 3.9 23:35:34 58° ENE 23:35:34 58° ENE 23:39:43 10° NNE
Cosmos 1666 Rocket 4.4 23:37:07 41° W 23:37:17 42° WNW 23:41:32 10° N
Meteor 1-11 Rocket 4.2 23:41:19 41° ESE 23:42:04 43° E 23:47:15 10° NNE
Cosmos 2219 Rocket 3.5 23:40:11 10° NW 23:44:35 24° WSW 23:44:40 24° WSW
Cosmos 2263 Rocket 4.5 23:46:36 10° ESE 23:47:41 11° E 23:48:48 10° E
NOSS 2-2 (C) 4.4 23:44:27 10° NW 23:49:47 84° NE 23:52:23 41° SE
SL-16 R/B 3.0 23:44:38 10° NNW 23:50:06 46° NE 23:52:42 28° ESE
Cosmos 1269 Rocket 3.8 23:50:05 73° SSW 23:50:37 90° WNW 23:55:57 10° NNE
PSLV R/B 3.7 23:47:17 10° NNE 23:52:05 81° ESE 23:52:12 81° SE
Resurs 1-4 Rocket 4.0 23:50:31 10° NE 23:53:56 17° E 23:55:13 16° ESE
